,,,PA_Meas_PMT16A,,PR_Meas_QMR101_102,,RH_Meas_QMH101,,SR_Meas_QMS101,,TA_Meas_QMH101,,GenWind,,GenWind,
date,time,status,PA,status,PR,status,RH,status,SR,status,TA,status,DirAvg,status,SpdAvg,
2014-12-28, 00:00:04,VALID,1010,VALID,0,INVALID,139.368,VALID,0.112112,VALID,23.7117,VALID,53,VALID,0,
2014-12-28, 00:01:04,VALID,1010.01,VALID,0,INVALID,139.414,VALID,0,VALID,23.7348,VALID,53,VALID,0,
2014-12-28, 00:02:04,VALID,1010.01,VALID,0,INVALID,139.391,VALID,0,VALID,23.733,VALID,53,VALID,0,
2014-12-28, 00:03:04,VALID,1010.01,VALID,0,INVALID,139.483,VALID,0,VALID,23.7135,VALID,53,VALID,0,
2014-12-28, 00:04:04,VALID,1009.99,VALID,0.5,INVALID,139.422,VALID,0,VALID,23.733,VALID,53,VALID,0,
2014-12-28, 00:05:04,VALID,1009.99,VALID,0,INVALID,139.422,VALID,0,VALID,23.7348,VALID,53,VALID,0,
2014-12-28, 00:06:04,VALID,1009.98,VALID,0,INVALID,139.475,VALID,0,VALID,23.7135,VALID,53,VALID,0,
2014-12-28, 00:07:04,VALID,1009.97,VALID,0,INVALID,139.429,VALID,0,VALID,23.7135,VALID,53,VALID,0,
2014-12-28, 00:08:04,VALID,1009.96,VALID,0,INVALID,139.445,VALID,0,VALID,23.7348,VALID,53,VALID,0,
2014-12-28, 00:09:04,VALID,1009.95,VALID,0,INVALID,139.414,VALID,0,VALID,23.7135,VALID,53,VALID,0,
2014-12-28, 00:10:04,VALID,1009.94,VALID,0,INVALID,139.445,VALID,0,VALID,23.7153,VALID,53,VALID,0,
2014-12-28, 00:11:04,VALID,1009.93,VALID,0,INVALID,139.445,VALID,0,VALID,23.7153,VALID,53,VALID,0,
2014-12-28, 00:12:04,VALID,1009.91,VALID,0,INVALID,139.437,VALID,0,VALID,23.7153,VALID,53,VALID,0,
2014-12-28, 00:13:04,VALID,1009.87,VALID,0,INVALID,139.46,VALID,0,VALID,23.6958,VALID,53,VALID,0,
2014-12-28, 00:14:04,VALID,1009.87,VALID,0,INVALID,139.452,VALID,0,VALID,23.6745,VALID,53,VALID,0,
2014-12-28, 00:15:04,VALID,1009.85,VALID,0,INVALID,139.483,VALID,0,VALID,23.6745,VALID,53,VALID,0,
2014-12-28, 00:16:04,VALID,1009.87,VALID,0,INVALID,139.513,VALID,0,VALID,23.6745,VALID,53,VALID,0,
2014-12-28, 00:17:04,VALID,1009.84,VALID,0,INVALID,139.559,VALID,0,VALID,23.655,VALID,53,VALID,0,
2014-12-28, 00:18:04,VALID,1009.82,VALID,0,INVALID,139.582,VALID,0,VALID,23.655,VALID,53,VALID,0,
2014-12-28, 00:19:04,VALID,1009.81,VALID,0,INVALID,139.589,VALID,0,VALID,23.655,VALID,53,VALID,0,
2014-12-28, 00:20:04,VALID,1009.79,VALID,0,INVALID,139.597,VALID,0,VALID,23.655,VALID,53,VALID,0,
2014-12-28, 00:21:04,VALID,1009.76,VALID,0,INVALID,139.643,VALID,0,VALID,23.655,VALID,53,VALID,0,
2014-12-28, 00:22:04,VALID,1009.77,VALID,0,INVALID,139.673,VALID,0,VALID,23.655,VALID,53,VALID,0,
2014-12-28, 00:23:04,VALID,1009.76,VALID,0,INVALID,139.635,VALID,0,VALID,23.6356,VALID,50,VALID,0,
2014-12-28, 00:24:04,VALID,1009.75,VALID,0,INVALID,139.666,VALID,0,VALID,23.6356,VALID,47,VALID,0,
2014-12-28, 00:25:04,VALID,1009.75,VALID,0,INVALID,139.673,VALID,0.112112,VALID,23.6356,VALID,47,VALID,0,
2014-12-28, 00:26:04,VALID,1009.75,VALID,0,INVALID,139.643,VALID,0,VALID,23.6356,VALID,54,VALID,0,
2014-12-28, 00:27:04,VALID,1009.75,VALID,0,INVALID,139.666,VALID,0,VALID,23.6161,VALID,54,VALID,0,
2014-12-28, 00:28:04,VALID,1009.73,VALID,0,INVALID,139.612,VALID,0,VALID,23.6373,VALID,54,VALID,0,
2014-12-28, 00:29:04,VALID,1009.73,VALID,0,INVALID,139.597,VALID,0,VALID,23.6356,VALID,54,VALID,0,
2014-12-28, 00:30:04,VALID,1009.7,VALID,0,INVALID,139.559,VALID,0,VALID,23.6356,VALID,54,VALID,0,
2014-12-28, 00:31:04,VALID,1009.69,VALID,0,INVALID,139.528,VALID,0,VALID,23.6568,VALID,54,VALID,0,
2014-12-28, 00:32:04,VALID,1009.7,VALID,0,INVALID,139.452,VALID,0,VALID,23.6356,VALID,54,VALID,0,
2014-12-28, 00:33:04,VALID,1009.69,VALID,0,INVALID,139.445,VALID,0,VALID,23.6356,VALID,54,VALID,0,
2014-12-28, 00:34:04,VALID,1009.67,VALID,0,INVALID,139.33,VALID,0,VALID,23.655,VALID,54,VALID,0,
2014-12-28, 00:35:04,VALID,1009.67,VALID,0,INVALID,139.323,VALID,0,VALID,23.6763,VALID,54,VALID,0,
2014-12-28, 00:36:04,VALID,1009.66,VALID,0,INVALID,139.262,VALID,0,VALID,23.655,VALID,54,VALID,0,
2014-12-28, 00:37:04,VALID,1009.64,VALID,0,INVALID,139.201,VALID,0,VALID,23.6356,VALID,54,VALID,0,
2014-12-28, 00:38:04,VALID,1009.63,VALID,0,INVALID,139.208,VALID,0,VALID,23.6356,VALID,84,VALID,0,
2014-12-28, 00:39:04,VALID,1009.63,VALID,0,INVALID,139.178,VALID,0,VALID,23.6356,VALID,81,VALID,0,
2014-12-28, 00:40:04,VALID,1009.59,VALID,0,INVALID,139.094,VALID,0,VALID,23.6356,VALID,76,VALID,0,
2014-12-28, 00:41:04,VALID,1009.62,VALID,0,INVALID,139.094,VALID,0,VALID,23.6356,VALID,88,VALID,0,
2014-12-28, 00:42:04,VALID,1009.62,VALID,0,INVALID,139.094,VALID,0,VALID,23.6356,VALID,76,VALID,0,
2014-12-28, 00:43:04,VALID,1009.61,VALID,0,INVALID,139.063,VALID,0,VALID,23.6356,VALID,76,VALID,0,
2014-12-28, 00:44:04,VALID,1009.62,VALID,0,INVALID,139.048,VALID,0,VALID,23.6161,VALID,76,VALID,0,
2014-12-28, 00:45:04,VALID,1009.6,VALID,0,INVALID,139.078,VALID,0,VALID,23.6161,VALID,76,VALID,0,
2014-12-28, 00:46:04,VALID,1009.59,VALID,0,INVALID,139.002,VALID,0,VALID,23.6356,VALID,78,VALID,0,
2014-12-28, 00:47:04,VALID,1009.57,VALID,0,INVALID,138.987,VALID,0,VALID,23.6161,VALID,79,VALID,0,
2014-12-28, 00:48:04,VALID,1009.58,VALID,0,INVALID,139.017,VALID,0,VALID,23.6179,VALID,79,VALID,0,
2014-12-28, 00:49:04,VALID,1009.54,VALID,0,INVALID,138.987,VALID,0,VALID,23.6161,VALID,79,VALID,0,
2014-12-28, 00:50:04,VALID,1009.54,VALID,0,INVALID,138.949,VALID,0,VALID,23.5966,VALID,89,VALID,0,
2014-12-28, 00:51:04,VALID,1009.56,VALID,0,INVALID,138.964,VALID,0,VALID,23.6161,VALID,80,VALID,0,
2014-12-28, 00:52:04,VALID,1009.54,VALID,0,INVALID,138.918,VALID,0,VALID,23.5966,VALID,75,VALID,0,
2014-12-28, 00:53:04,VALID,1009.52,VALID,0,INVALID,138.926,VALID,0,VALID,23.6373,VALID,91,VALID,0,
2014-12-28, 00:54:04,VALID,1009.5,VALID,0,INVALID,138.918,VALID,0,VALID,23.5966,VALID,78,VALID,0,
2014-12-28, 00:55:04,VALID,1009.51,VALID,0,INVALID,138.903,VALID,0,VALID,23.6179,VALID,90,VALID,0,
2014-12-28, 00:56:04,VALID,1009.52,VALID,0,INVALID,138.819,VALID,0,VALID,23.6373,VALID,90,VALID,0,
2014-12-28, 00:57:04,VALID,1009.53,VALID,0,INVALID,138.773,VALID,0,VALID,23.6161,VALID,90,VALID,0,
2014-12-28, 00:58:04,VALID,1009.53,VALID,0,INVALID,138.812,VALID,0,VALID,23.6373,VALID,86,VALID,0,
2014-12-28, 00:59:04,VALID,1009.51,VALID,0,INVALID,138.728,VALID,0,VALID,23.6373,VALID,86,VALID,0,
2014-12-28, 01:00:04,VALID,1009.53,VALID,0,INVALID,138.705,VALID,0,VALID,23.6356,VALID,87,VALID,0,
2014-12-28, 01:01:04,VALID,1009.52,VALID,0,INVALID,138.659,VALID,0,VALID,23.6356,VALID,90,VALID,0,
2014-12-28, 01:02:04,VALID,1009.47,VALID,0,INVALID,138.621,VALID,0,VALID,23.6161,VALID,70,VALID,0,
2014-12-28, 01:03:04,VALID,1009.5,VALID,0,INVALID,138.583,VALID,0,VALID,23.6568,VALID,70,VALID,0,
2014-12-28, 01:04:04,VALID,1009.48,VALID,0,INVALID,138.537,VALID,0,VALID,23.6356,VALID,70,VALID,0,
2014-12-28, 01:05:04,VALID,1009.46,VALID,0,INVALID,138.461,VALID,0,VALID,23.6161,VALID,70,VALID,0,
2014-12-28, 01:06:04,VALID,1009.46,VALID,0,INVALID,138.461,VALID,0,VALID,23.6161,VALID,70,VALID,0,
2014-12-28, 01:07:04,VALID,1009.46,VALID,0,INVALID,138.407,VALID,0,VALID,23.6568,VALID,70,VALID,0,
2014-12-28, 01:08:04,VALID,1009.46,VALID,0,INVALID,138.346,VALID,0,VALID,23.6161,VALID,70,VALID,0,
2014-12-28, 01:09:04,VALID,1009.44,VALID,0,INVALID,138.278,VALID,0,VALID,23.6356,VALID,70,VALID,0,
2014-12-28, 01:10:04,VALID,1009.42,VALID,0,INVALID,138.308,VALID,0,VALID,23.5966,VALID,70,VALID,0,
2014-12-28, 01:11:04,VALID,1009.42,VALID,0,INVALID,138.24,VALID,0,VALID,23.5966,VALID,70,VALID,0,
2014-12-28, 01:12:04,VALID,1009.42,VALID,0,INVALID,138.255,VALID,0,VALID,23.5771,VALID,70,VALID,0,
2014-12-28, 01:13:04,VALID,1009.4,VALID,0,INVALID,138.217,VALID,0,VALID,23.6179,VALID,70,VALID,0,
2014-12-28, 01:14:04,VALID,1009.38,VALID,0,INVALID,138.171,VALID,0,VALID,23.5771,VALID,70,VALID,0,
2014-12-28, 01:15:04,VALID,1009.33,VALID,0,INVALID,138.217,VALID,0,VALID,23.5576,VALID,70,VALID,0,
2014-12-28, 01:16:04,VALID,1009.35,VALID,0,INVALID,138.156,VALID,0.112112,VALID,23.5753,VALID,70,VALID,0,
2014-12-28, 01:17:04,VALID,1009.32,VALID,0,INVALID,138.095,VALID,0.112112,VALID,23.5966,VALID,70,VALID,0,
2014-12-28, 01:18:04,VALID,1009.33,VALID,0,INVALID,138.064,VALID,0.112112,VALID,23.6143,VALID,70,VALID,0,
2014-12-28, 01:19:04,VALID,1009.32,VALID,0,INVALID,137.95,VALID,0.112112,VALID,23.6356,VALID,70,VALID,0,
2014-12-28, 01:20:04,VALID,1009.31,VALID,0,INVALID,137.927,VALID,0.112112,VALID,23.6161,VALID,70,VALID,0,
2014-12-28, 01:21:04,VALID,1009.3,VALID,0,INVALID,137.889,VALID,0.112112,VALID,23.5948,VALID,70,VALID,0,
2014-12-28, 01:22:04,VALID,1009.27,VALID,0,INVALID,137.782,VALID,0.112112,VALID,23.6338,VALID,70,VALID,0,
2014-12-28, 01:23:04,VALID,1009.27,VALID,0,INVALID,137.729,VALID,0.112112,VALID,23.6143,VALID,70,VALID,0,
2014-12-28, 01:24:04,VALID,1009.28,VALID,0,INVALID,137.805,VALID,0.112112,VALID,23.6143,VALID,70,VALID,0,
2014-12-28, 01:25:04,VALID,1009.3,VALID,0,INVALID,137.691,VALID,0,VALID,23.5966,VALID,70,VALID,0,
2014-12-28, 01:26:04,VALID,1009.28,VALID,0,INVALID,137.752,VALID,0,VALID,23.5753,VALID,90,VALID,0,
2014-12-28, 01:27:04,VALID,1009.27,VALID,0,INVALID,137.713,VALID,0.112112,VALID,23.5558,VALID,76,VALID,0,
2014-12-28, 01:28:04,VALID,1009.27,VALID,0,INVALID,137.721,VALID,0.112112,VALID,23.5558,VALID,77,VALID,0,
2014-12-28, 01:29:04,VALID,1009.25,VALID,0,INVALID,137.729,VALID,0,VALID,23.5966,VALID,93,VALID,0,
2014-12-28, 01:30:04,VALID,1009.23,VALID,0,INVALID,137.706,VALID,0,VALID,23.5966,VALID,94,VALID,0,
2014-12-28, 01:31:04,VALID,1009.2,VALID,0,INVALID,137.683,VALID,0,VALID,23.5771,VALID,94,VALID,0,
2014-12-28, 01:32:04,VALID,1009.19,VALID,0,INVALID,137.744,VALID,0,VALID,23.5576,VALID,94,VALID,0,
2014-12-28, 01:33:04,VALID,1009.18,VALID,0,INVALID,137.774,VALID,0,VALID,23.5381,VALID,94,VALID,0,
2014-12-28, 01:34:04,VALID,1009.18,VALID,0,INVALID,137.835,VALID,0,VALID,23.5186,VALID,94,VALID,0,
2014-12-28, 01:35:04,VALID,1009.16,VALID,0,INVALID,137.813,VALID,0,VALID,23.5381,VALID,94,VALID,0,
2014-12-28, 01:36:04,VALID,1009.14,VALID,0,INVALID,137.79,VALID,0,VALID,23.5594,VALID,94,VALID,0,
2014-12-28, 01:37:04,VALID,1009.14,VALID,0,INVALID,137.851,VALID,0,VALID,23.5399,VALID,94,VALID,0,
2014-12-28, 01:38:04,VALID,1009.11,VALID,0,INVALID,137.858,VALID,0,VALID,23.4992,VALID,95,VALID,0,
2014-12-28, 01:39:04,VALID,1009.06,VALID,0,INVALID,137.881,VALID,0,VALID,23.4992,VALID,87,VALID,0,
2014-12-28, 01:40:04,VALID,1009.04,VALID,0,INVALID,137.874,VALID,0,VALID,23.5186,VALID,95,VALID,0,
2014-12-28, 01:41:04,VALID,1009.04,VALID,0,INVALID,137.896,VALID,0,VALID,23.4992,VALID,80,VALID,0,
2014-12-28, 01:42:04,VALID,1009.01,VALID,0,INVALID,137.927,VALID,0,VALID,23.4992,VALID,86,VALID,0,
2014-12-28, 01:43:04,VALID,1009.01,VALID,0,INVALID,137.881,VALID,0,VALID,23.5204,VALID,87,VALID,0,
2014-12-28, 01:44:04,VALID,1009,VALID,0,INVALID,137.835,VALID,0,VALID,23.4992,VALID,87,VALID,0,
2014-12-28, 01:45:04,VALID,1008.96,VALID,0,INVALID,137.866,VALID,0,VALID,23.4992,VALID,88,VALID,0,
2014-12-28, 01:46:04,VALID,1008.96,VALID,0,INVALID,137.881,VALID,0,VALID,23.4797,VALID,90,VALID,0,
2014-12-28, 01:47:04,VALID,1008.94,VALID,0,INVALID,137.927,VALID,0,VALID,23.4992,VALID,88,VALID,0,
2014-12-28, 01:48:04,VALID,1008.94,VALID,0,INVALID,137.973,VALID,0,VALID,23.4797,VALID,90,VALID,0,
2014-12-28, 01:49:04,VALID,1008.91,VALID,0,INVALID,137.973,VALID,0,VALID,23.4992,VALID,93,VALID,0,
2014-12-28, 01:50:04,VALID,1008.88,VALID,0,INVALID,138.011,VALID,0,VALID,23.5186,VALID,93,VALID,0,
2014-12-28, 01:51:04,VALID,1008.86,VALID,0,INVALID,137.988,VALID,0,VALID,23.4992,VALID,93,VALID,0,
2014-12-28, 01:52:04,VALID,1008.86,VALID,0,INVALID,138.019,VALID,0,VALID,23.4992,VALID,80,VALID,0,
2014-12-28, 01:53:04,VALID,1008.83,VALID,0,INVALID,138.072,VALID,0,VALID,23.4992,VALID,68,VALID,0,
2014-12-28, 01:54:04,VALID,1008.84,VALID,0,INVALID,138.064,VALID,0,VALID,23.4992,VALID,59,VALID,0,
2014-12-28, 01:55:04,VALID,1008.8,VALID,0,INVALID,138.072,VALID,0,VALID,23.4584,VALID,82,VALID,0,
2014-12-28, 01:56:04,VALID,1008.79,VALID,0,INVALID,138.11,VALID,0,VALID,23.4797,VALID,92,VALID,0,
2014-12-28, 01:57:04,VALID,1008.76,VALID,0,INVALID,138.08,VALID,0,VALID,23.4992,VALID,60,VALID,0,
2014-12-28, 01:58:04,VALID,1008.76,VALID,0,INVALID,138.095,VALID,0,VALID,23.4992,VALID,60,VALID,0,
2014-12-28, 01:59:04,VALID,1008.75,VALID,0,INVALID,137.996,VALID,0,VALID,23.4992,VALID,86,VALID,0,
2014-12-28, 02:00:04,VALID,1008.74,VALID,0,INVALID,138.064,VALID,0,VALID,23.4797,VALID,83,VALID,0,
2014-12-28, 02:01:04,VALID,1008.72,VALID,0,INVALID,138.057,VALID,0,VALID,23.4602,VALID,75,VALID,0,
2014-12-28, 02:02:04,VALID,1008.71,VALID,0,INVALID,138.08,VALID,0,VALID,23.4797,VALID,86,VALID,0,
2014-12-28, 02:03:04,VALID,1008.68,VALID,0,INVALID,138.057,VALID,0,VALID,23.4797,VALID,96,VALID,0,
2014-12-28, 02:04:04,VALID,1008.69,VALID,0,INVALID,138.087,VALID,0,VALID,23.4797,VALID,96,VALID,0,
2014-12-28, 02:05:04,VALID,1008.71,VALID,0,INVALID,138.087,VALID,0,VALID,23.4602,VALID,92,VALID,0,
2014-12-28, 02:06:04,VALID,1008.68,VALID,0,INVALID,138.057,VALID,0,VALID,23.4797,VALID,87,VALID,0,
2014-12-28, 02:07:04,VALID,1008.68,VALID,0,INVALID,138.057,VALID,0,VALID,23.4797,VALID,69,VALID,0,
2014-12-28, 02:08:04,VALID,1008.68,VALID,0,INVALID,138.133,VALID,0,VALID,23.4602,VALID,96,VALID,0,
2014-12-28, 02:09:04,VALID,1008.69,VALID,0,INVALID,138.095,VALID,0,VALID,23.4992,VALID,96,VALID,0,
2014-12-28, 02:10:04,VALID,1008.7,VALID,0,INVALID,138.095,VALID,0,VALID,23.4992,VALID,96,VALID,0,
2014-12-28, 02:11:04,VALID,1008.7,VALID,0,INVALID,138.072,VALID,0,VALID,23.4992,VALID,96,VALID,0,
2014-12-28, 02:12:04,VALID,1008.68,VALID,0,INVALID,138.057,VALID,0,VALID,23.4992,VALID,89,VALID,0,
2014-12-28, 02:13:04,VALID,1008.67,VALID,0,INVALID,138.034,VALID,0,VALID,23.5186,VALID,89,VALID,0,
2014-12-28, 02:14:04,VALID,1008.63,VALID,0,INVALID,138.049,VALID,0,VALID,23.4992,VALID,89,VALID,0,
2014-12-28, 02:15:04,VALID,1008.62,VALID,0,INVALID,138.057,VALID,0,VALID,23.4992,VALID,89,VALID,0,
2014-12-28, 02:16:04,VALID,1008.63,VALID,0,INVALID,138.003,VALID,0,VALID,23.4992,VALID,89,VALID,0,
2014-12-28, 02:17:04,VALID,1008.62,VALID,0,INVALID,137.95,VALID,0,VALID,23.5186,VALID,89,VALID,0,
2014-12-28, 02:18:04,VALID,1008.62,VALID,0,INVALID,137.996,VALID,0,VALID,23.5186,VALID,96,VALID,0,
2014-12-28, 02:19:04,VALID,1008.61,VALID,0,INVALID,137.881,VALID,0,VALID,23.5186,VALID,96,VALID,0,
2014-12-28, 02:20:04,VALID,1008.63,VALID,0,INVALID,137.95,VALID,0,VALID,23.4797,VALID,96,VALID,0,
2014-12-28, 02:21:04,VALID,1008.66,VALID,0,INVALID,137.912,VALID,0,VALID,23.4992,VALID,96,VALID,0,
2014-12-28, 02:22:04,VALID,1008.64,VALID,0,INVALID,137.851,VALID,0,VALID,23.4992,VALID,96,VALID,0,
2014-12-28, 02:23:04,VALID,1008.66,VALID,0,INVALID,137.904,VALID,0,VALID,23.4797,VALID,96,VALID,0,
2014-12-28, 02:24:04,VALID,1008.65,VALID,0,INVALID,137.82,VALID,0,VALID,23.4992,VALID,96,VALID,0,
2014-12-28, 02:25:04,VALID,1008.67,VALID,0,INVALID,137.79,VALID,0,VALID,23.4992,VALID,96,VALID,0,
2014-12-28, 02:26:04,VALID,1008.67,VALID,0,INVALID,137.767,VALID,0,VALID,23.4797,VALID,96,VALID,0,
2014-12-28, 02:27:04,VALID,1008.67,VALID,0,INVALID,137.774,VALID,0,VALID,23.4797,VALID,96,VALID,0,
2014-12-28, 02:28:04,VALID,1008.66,VALID,0,INVALID,137.713,VALID,0,VALID,23.4797,VALID,96,VALID,0,
2014-12-28, 02:29:04,VALID,1008.67,VALID,0,INVALID,137.706,VALID,0,VALID,23.4797,VALID,96,VALID,0,
2014-12-28, 02:30:04,VALID,1008.67,VALID,0,INVALID,137.599,VALID,0,VALID,23.5204,VALID,96,VALID,0,
2014-12-28, 02:31:04,VALID,1008.67,VALID,0,INVALID,137.553,VALID,0,VALID,23.4992,VALID,96,VALID,0,
2014-12-28, 02:32:04,VALID,1008.67,VALID,0,INVALID,137.584,VALID,0,VALID,23.4797,VALID,96,VALID,0,
2014-12-28, 02:33:04,VALID,1008.66,VALID,0,INVALID,137.546,VALID,0,VALID,23.4602,VALID,96,VALID,0,
2014-12-28, 02:34:04,VALID,1008.66,VALID,0,INVALID,137.492,VALID,0,VALID,23.4992,VALID,96,VALID,0,
2014-12-28, 02:35:04,VALID,1008.66,VALID,0,INVALID,137.378,VALID,0,VALID,23.5399,VALID,96,VALID,0,
2014-12-28, 02:36:04,VALID,1008.63,VALID,0,INVALID,137.309,VALID,0,VALID,23.4992,VALID,96,VALID,0,
2014-12-28, 02:37:04,VALID,1008.64,VALID,0,INVALID,137.294,VALID,0,VALID,23.5186,VALID,96,VALID,0,
2014-12-28, 02:38:04,VALID,1008.61,VALID,0,INVALID,137.233,VALID,0,VALID,23.4797,VALID,96,VALID,0,
2014-12-28, 02:39:04,VALID,1008.6,VALID,0,INVALID,137.279,VALID,0,VALID,23.4797,VALID,96,VALID,0,
2014-12-28, 02:40:04,VALID,1008.58,VALID,0,INVALID,137.195,VALID,0,VALID,23.4797,VALID,96,VALID,0,
2014-12-28, 02:41:04,VALID,1008.58,VALID,0,INVALID,137.172,VALID,0,VALID,23.4797,VALID,75,VALID,0,
2014-12-28, 02:42:04,VALID,1008.54,VALID,0,INVALID,137.096,VALID,0,VALID,23.4974,VALID,75,VALID,0,
2014-12-28, 02:43:04,VALID,1008.56,VALID,0,INVALID,137.05,VALID,0,VALID,23.5186,VALID,75,VALID,0,
2014-12-28, 02:44:04,VALID,1008.55,VALID,0,INVALID,137.012,VALID,0,VALID,23.5186,VALID,75,VALID,0,
2014-12-28, 02:45:04,VALID,1008.53,VALID,0,INVALID,137.065,VALID,0,VALID,23.4992,VALID,75,VALID,0,
2014-12-28, 02:46:04,VALID,1008.53,VALID,0,INVALID,137.035,VALID,0,VALID,23.4992,VALID,75,VALID,0,
2014-12-28, 02:47:04,VALID,1008.52,VALID,0,INVALID,137.073,VALID,0,VALID,23.4797,VALID,75,VALID,0,
2014-12-28, 02:48:04,VALID,1008.49,VALID,0,INVALID,137.111,VALID,0,VALID,23.4797,VALID,75,VALID,0,
2014-12-28, 02:49:04,VALID,1008.49,VALID,0,INVALID,137.18,VALID,0,VALID,23.4797,VALID,75,VALID,0,
2014-12-28, 02:50:04,VALID,1008.48,VALID,0,INVALID,137.18,VALID,0,VALID,23.4797,VALID,75,VALID,0,
2014-12-28, 02:51:04,VALID,1008.46,VALID,0,INVALID,137.203,VALID,0.112112,VALID,23.4992,VALID,75,VALID,0,
2014-12-28, 02:52:04,VALID,1008.43,VALID,0,INVALID,137.218,VALID,0,VALID,23.5186,VALID,75,VALID,0,
2014-12-28, 02:53:04,VALID,1008.45,VALID,0,INVALID,137.241,VALID,0,VALID,23.5186,VALID,75,VALID,0,
2014-12-28, 02:54:04,VALID,1008.41,VALID,0,INVALID,137.225,VALID,0,VALID,23.5186,VALID,75,VALID,0,
2014-12-28, 02:55:04,VALID,1008.42,VALID,0,INVALID,137.248,VALID,0,VALID,23.5186,VALID,75,VALID,0,
2014-12-28, 02:56:04,VALID,1008.41,VALID,0,INVALID,137.241,VALID,0.112112,VALID,23.5381,VALID,75,VALID,0,
2014-12-28, 02:57:04,VALID,1008.4,VALID,0,INVALID,137.203,VALID,0,VALID,23.5381,VALID,75,VALID,0,
2014-12-28, 02:58:04,VALID,1008.38,VALID,0,INVALID,137.286,VALID,0,VALID,23.5186,VALID,87,VALID,0,
2014-12-28, 02:59:04,VALID,1008.36,VALID,0,INVALID,137.241,VALID,0.112112,VALID,23.5186,VALID,89,VALID,0,
2014-12-28, 03:00:04,VALID,1008.32,VALID,0,INVALID,137.248,VALID,0,VALID,23.5381,VALID,89,VALID,0,
2014-12-28, 03:01:04,VALID,1008.32,VALID,0,INVALID,137.241,VALID,0,VALID,23.5381,VALID,89,VALID,0,
2014-12-28, 03:02:04,VALID,1008.31,VALID,0,INVALID,137.233,VALID,0.112112,VALID,23.5381,VALID,75,VALID,0,
2014-12-28, 03:03:04,VALID,1008.29,VALID,0,INVALID,137.225,VALID,0,VALID,23.5169,VALID,70,VALID,0,
2014-12-28, 03:04:04,VALID,1008.27,VALID,0,INVALID,137.271,VALID,0,VALID,23.5186,VALID,70,VALID,0,
2014-12-28, 03:05:04,VALID,1008.24,VALID,0,INVALID,137.225,VALID,0,VALID,23.5186,VALID,70,VALID,0,
2014-12-28, 03:06:04,VALID,1008.26,VALID,0,INVALID,137.157,VALID,0,VALID,23.5186,VALID,70,VALID,0,
2014-12-28, 03:07:04,VALID,1008.24,VALID,0,INVALID,137.172,VALID,0,VALID,23.5186,VALID,70,VALID,0,
2014-12-28, 03:08:04,VALID,1008.23,VALID,0,INVALID,137.149,VALID,0,VALID,23.5186,VALID,70,VALID,0,
2014-12-28, 03:09:04,VALID,1008.22,VALID,0,INVALID,137.134,VALID,0,VALID,23.4992,VALID,85,VALID,0,
2014-12-28, 03:10:04,VALID,1008.22,VALID,0,INVALID,137.05,VALID,0,VALID,23.4992,VALID,81,VALID,0,
2014-12-28, 03:11:04,VALID,1008.19,VALID,0,INVALID,137.05,VALID,0,VALID,23.4992,VALID,81,VALID,0,
2014-12-28, 03:12:04,VALID,1008.18,VALID,0,INVALID,136.997,VALID,0,VALID,23.4992,VALID,81,VALID,0,
2014-12-28, 03:13:04,VALID,1008.16,VALID,0,INVALID,136.89,VALID,0,VALID,23.5204,VALID,81,VALID,0,
2014-12-28, 03:14:04,VALID,1008.16,VALID,0,INVALID,136.821,VALID,0,VALID,23.5186,VALID,83,VALID,0,
2014-12-28, 03:15:04,VALID,1008.15,VALID,0,INVALID,136.798,VALID,0,VALID,23.5186,VALID,75,VALID,0,
2014-12-28, 03:16:04,VALID,1008.13,VALID,0,INVALID,136.684,VALID,0,VALID,23.5186,VALID,75,VALID,0,
2014-12-28, 03:17:04,VALID,1008.11,VALID,0,INVALID,136.631,VALID,0,VALID,23.5186,VALID,75,VALID,0,
2014-12-28, 03:18:04,VALID,1008.11,VALID,0,INVALID,136.539,VALID,0,VALID,23.5186,VALID,75,VALID,0,
2014-12-28, 03:19:04,VALID,1008.09,VALID,0,INVALID,136.44,VALID,0,VALID,23.5186,VALID,75,VALID,0,
2014-12-28, 03:20:04,VALID,1008.12,VALID,0,INVALID,136.448,VALID,0.112112,VALID,23.4992,VALID,75,VALID,0,
2014-12-28, 03:21:04,VALID,1008.09,VALID,0,INVALID,136.387,VALID,0.112112,VALID,23.4992,VALID,75,VALID,0,
2014-12-28, 03:22:04,VALID,1008.12,VALID,0,INVALID,136.326,VALID,0,VALID,23.4602,VALID,75,VALID,0,
2014-12-28, 03:23:04,VALID,1008.1,VALID,0,INVALID,136.226,VALID,0,VALID,23.4797,VALID,75,VALID,0,
2014-12-28, 03:24:04,VALID,1008.1,VALID,0,INVALID,136.165,VALID,0,VALID,23.4602,VALID,75,VALID,0,
2014-12-28, 03:25:04,VALID,1008.1,VALID,0,INVALID,136.097,VALID,0,VALID,23.4602,VALID,75,VALID,0,
2014-12-28, 03:26:04,VALID,1008.06,VALID,0,INVALID,136.051,VALID,0,VALID,23.4797,VALID,75,VALID,0,
2014-12-28, 03:27:04,VALID,1008.04,VALID,0,INVALID,135.96,VALID,0,VALID,23.4602,VALID,75,VALID,0,
2014-12-28, 03:28:04,VALID,1008.04,VALID,0,INVALID,135.868,VALID,0,VALID,23.4602,VALID,75,VALID,0,
2014-12-28, 03:29:04,VALID,1008,VALID,0,INVALID,135.777,VALID,0,VALID,23.4602,VALID,75,VALID,0,
2014-12-28, 03:30:04,VALID,1008,VALID,0,INVALID,135.708,VALID,0,VALID,23.4602,VALID,75,VALID,0,
2014-12-28, 03:31:04,VALID,1008.01,VALID,0,INVALID,135.639,VALID,0,VALID,23.4389,VALID,75,VALID,0,
2014-12-28, 03:32:04,VALID,1008.02,VALID,0,INVALID,135.464,VALID,0.112112,VALID,23.4779,VALID,89,VALID,0,
2014-12-28, 03:33:04,VALID,1008.01,VALID,0,INVALID,135.403,VALID,0,VALID,23.4602,VALID,89,VALID,0,
2014-12-28, 03:34:04,VALID,1008.03,VALID,0,INVALID,135.296,VALID,0.112112,VALID,23.4797,VALID,89,VALID,0,
2014-12-28, 03:35:04,VALID,1008.04,VALID,0,INVALID,135.197,VALID,0,VALID,23.4797,VALID,89,VALID,0,
2014-12-28, 03:36:04,VALID,1008.02,VALID,0,INVALID,135.075,VALID,0,VALID,23.4992,VALID,96,VALID,0,
2014-12-28, 03:37:04,VALID,1008.05,VALID,0,INVALID,135.06,VALID,0,VALID,23.4602,VALID,96,VALID,0,
2014-12-28, 03:38:04,VALID,1008.06,VALID,0,INVALID,134.922,VALID,0,VALID,23.4602,VALID,96,VALID,0,
2014-12-28, 03:39:04,VALID,1008.05,VALID,0,INVALID,134.854,VALID,0,VALID,23.5009,VALID,96,VALID,0,
2014-12-28, 03:40:04,VALID,1008.06,VALID,0,INVALID,134.739,VALID,0,VALID,23.4797,VALID,96,VALID,0,
2014-12-28, 03:41:04,VALID,1008.08,VALID,0,INVALID,134.656,VALID,0,VALID,23.4992,VALID,96,VALID,0,
2014-12-28, 03:42:04,VALID,1008.03,VALID,0,INVALID,134.633,VALID,0,VALID,23.4584,VALID,94,VALID,0,
2014-12-28, 03:43:04,VALID,1008.05,VALID,0,INVALID,134.556,VALID,0,VALID,23.4602,VALID,94,VALID,0,
2014-12-28, 03:44:04,VALID,1008.04,VALID,0,INVALID,134.488,VALID,0,VALID,23.4602,VALID,94,VALID,0,
2014-12-28, 03:45:04,VALID,1008.03,VALID,0,INVALID,134.457,VALID,0,VALID,23.4407,VALID,94,VALID,0,
2014-12-28, 03:46:04,VALID,1008.01,VALID,0,INVALID,134.427,VALID,0,VALID,23.4407,VALID,87,VALID,0,
2014-12-28, 03:47:04,VALID,1007.98,VALID,0,INVALID,134.32,VALID,0.112112,VALID,23.4389,VALID,87,VALID,0,
2014-12-28, 03:48:04,VALID,1007.96,VALID,0,INVALID,134.259,VALID,0.112112,VALID,23.4194,VALID,87,VALID,0,
2014-12-28, 03:49:04,VALID,1007.97,VALID,0,INVALID,134.198,VALID,0,VALID,23.4194,VALID,87,VALID,0,
2014-12-28, 03:50:04,VALID,1007.98,VALID,0,INVALID,134.145,VALID,0,VALID,23.4194,VALID,87,VALID,0,
2014-12-28, 03:51:04,VALID,1007.96,VALID,0,INVALID,134.061,VALID,0,VALID,23.4212,VALID,89,VALID,0,
2014-12-28, 03:52:04,VALID,1007.96,VALID,0,INVALID,134.007,VALID,0,VALID,23.4,VALID,77,VALID,0,
2014-12-28, 03:53:04,VALID,1007.99,VALID,0,INVALID,133.901,VALID,0,VALID,23.4212,VALID,77,VALID,0,
2014-12-28, 03:54:04,VALID,1007.98,VALID,0,INVALID,133.779,VALID,0,VALID,23.4602,VALID,84,VALID,0,
2014-12-28, 03:55:04,VALID,1008,VALID,0,INVALID,133.718,VALID,0,VALID,23.4407,VALID,85,VALID,0,
2014-12-28, 03:56:04,VALID,1008,VALID,0,INVALID,133.565,VALID,0,VALID,23.4602,VALID,84,VALID,0,